Weather History for Montpellier, France

Change the Weather History Date:

Sunday, November 10, 2013

  Actual Average Record
Temperature  
Mean Temperature 60 °F -  
Max Temperature 68 °F 55 °F 71 °F (2002)
Min Temperature 51 °F 40 °F 35 °F (2004)
Degree Days  
Heating Degree Days 6    
Growing Degree Days 10 (Base 50)    
Moisture  
Dew Point 42 °F    
Average Humidity 54    
Maximum Humidity 72    
Minimum Humidity 33    
Precipitation  
Precipitation 0.00 in - - ()
Sea Level Pressure  
Sea Level Pressure 29.98 in    
Wind  
Wind Speed 13 mph ()    
Max Wind Speed 30 mph    
Max Gust Speed 46 mph    
Visibility 6.2 miles    
Events      
Averages and records for this station are not official NWS values.
T = Trace of Precipitation, MM = Missing Value Source: Averaged Metar Reports

Daily Weather History Graph

Daily Weather History Graph

Search for Another Location

Airport:

Trip Planner

Search our weather history database for the weather conditions in past years. The results will help you decide how hot, cold, wet, or windy it might be!

Date:

Astronomy

Nov. 10, 2013 Rise Set
Actual Time 7:31 AM CET 5:24 PM CET
Civil Twilight 7:00 AM CET 5:54 PM CET
Nautical Twilight 6:26 AM CET 6:28 PM CET
Astronomical Twilight 5:52 AM CET 7:02 PM CET
Moon 1:32 PM CET (11/10) No Moon Set
Length of Visible Light 10h 53m
Length of Day
9h 52m
First Quarter, 52% of the Moon is Illuminated
Nov 10
First Quarter
Nov 17
Full
Nov 25
Last Quarter
Dec 3
New
Dec 9
First Quarter

Hourly Weather History & Observations

Time (CET) Temp. Dew Point Humidity Pressure Visibility Wind Dir Wind Speed Gust Speed Precip Events Conditions
12:00 AM 53.6 °F 42.8 °F 67% 30.04 in 6.2 mi Variable 1.2 mph - N/A   Mostly Cloudy
12:30 AM 51.8 °F 42.8 °F 71% 30.04 in 6.2 mi WSW 4.6 mph - N/A   Mostly Cloudy
1:00 AM 53 °F 43 °F 61% 30.05 in 37 mi West 8.1 mph - -   Clear
1:00 AM 51.8 °F 42.8 °F 71% 30.04 in 6.2 mi West 8.1 mph - N/A   Mostly Cloudy
1:30 AM 53.6 °F 44.6 °F 72% 30.04 in 6.2 mi WSW 11.5 mph - N/A   Unknown
2:00 AM 53.6 °F 42.8 °F 67% 30.01 in 6.2 mi WSW 11.5 mph - N/A   Unknown
2:30 AM 53.6 °F 44.6 °F 72% 30.01 in 6.2 mi SW 11.5 mph - N/A   Unknown
3:00 AM 55.4 °F 44.6 °F 67% 30.01 in 6.2 mi SW 11.5 mph - N/A   Unknown
3:30 AM 55.4 °F 44.6 °F 67% 30.01 in 6.2 mi WSW 11.5 mph - N/A   Unknown
4:00 AM 57.2 °F 44.6 °F 63% 29.98 in 6.2 mi West 10.4 mph - N/A   Mostly Cloudy
5:00 AM 57.2 °F 46.4 °F 67% 29.98 in 6.2 mi SW 4.6 mph - N/A   Mostly Cloudy
5:30 AM 55.4 °F 46.4 °F 72% 29.95 in - SSW 5.8 mph - N/A   Clear
6:00 AM 57.2 °F 48.2 °F 72% 29.95 in 6.2 mi SW 8.1 mph - N/A   Mostly Cloudy
6:30 AM 57.2 °F 48.2 °F 72% 29.92 in - SSW 10.4 mph - N/A   Clear
7:00 AM 57 °F 47 °F 62% 29.94 in 31 mi SW 9.2 mph - -   Overcast
7:00 AM 57.2 °F 48.2 °F 72% 29.92 in 6.2 mi SW 9.2 mph - N/A   Overcast
7:30 AM 57.2 °F 48.2 °F 72% 29.92 in - SW 9.2 mph - N/A   Clear
8:00 AM 59.0 °F 46.4 °F 63% 29.92 in - West 12.7 mph - N/A   Clear
8:30 AM 60.8 °F 48.2 °F 63% 29.89 in - WSW 19.6 mph - N/A   Clear
9:00 AM 60.8 °F 48.2 °F 63% 29.89 in - SW 19.6 mph - N/A   Clear
9:30 AM 62.6 °F 50.0 °F 63% 29.89 in - SW 17.3 mph - N/A   Clear
10:00 AM 64.4 °F 50.0 °F 59% 29.89 in - WSW 15.0 mph - N/A   Clear
10:30 AM 66.2 °F 50.0 °F 56% 29.89 in - West 27.6 mph - N/A   Clear
11:00 AM 66.2 °F 50.0 °F 56% 29.89 in - West 27.6 mph - N/A   Clear
11:30 AM 66.2 °F 50.0 °F 56% 29.89 in 6.2 mi WNW 25.3 mph - N/A   Unknown
12:00 PM 66.2 °F 50.0 °F 56% 29.92 in 6.2 mi WNW 20.7 mph 32.2 mph N/A   Unknown
12:30 PM 68.0 °F 46.4 °F 46% 29.89 in 6.2 mi NW 26.5 mph 42.6 mph N/A   Unknown
1:00 PM 66 °F 48 °F 41% 29.91 in 44 mi NW 28.8 mph - -   Scattered Clouds
1:00 PM 66.2 °F 48.2 °F 52% 29.89 in - NW 28.8 mph - N/A   Clear
1:30 PM 68.0 °F 48.2 °F 49% 29.89 in - WNW 25.3 mph - N/A   Clear
2:00 PM 68.0 °F 46.4 °F 46% 29.89 in - WNW 27.6 mph - N/A   Clear
2:30 PM 66.2 °F 46.4 °F 49% 29.89 in - WNW 25.3 mph - N/A   Clear
3:00 PM 66.2 °F 44.6 °F 46% 29.89 in - WNW 29.9 mph - N/A   Clear
3:30 PM 68.0 °F 42.8 °F 40% 29.89 in - NW 24.2 mph - N/A   Clear
4:00 PM 66.2 °F 42.8 °F 43% 29.92 in - NW 29.9 mph 46.0 mph N/A   Clear
4:30 PM 64.4 °F 42.8 °F 45% 29.92 in - NW 28.8 mph - N/A   Clear
5:30 PM 62.6 °F 37.4 °F 39% 29.98 in - NNW 26.5 mph - N/A   Clear
6:00 PM 60.8 °F 35.6 °F 39% 30.01 in - NW 26.5 mph - N/A   Clear
6:30 PM 60.8 °F 37.4 °F 42% 30.04 in - NNW 21.9 mph - N/A   Clear
7:00 PM 58 °F 37 °F 33% 30.06 in 31 mi NNW 18.4 mph - -   Scattered Clouds
7:00 PM 59.0 °F 37.4 °F 45% 30.04 in - NNW 20.7 mph 33.4 mph N/A   Clear
7:30 PM 57.2 °F 33.8 °F 41% 30.06 in - NNW 25.3 mph - N/A   Clear
8:00 PM 57.2 °F 30.2 °F 36% 30.06 in - NNW 27.6 mph 39.1 mph N/A   Clear
8:30 PM 55.4 °F 30.2 °F 38% 30.06 in - North 23.0 mph - N/A   Clear
9:00 PM 55.4 °F 30.2 °F 38% 30.09 in - NNW 19.6 mph - N/A   Clear
9:30 PM 53.6 °F 28.4 °F 38% 30.09 in - North 15.0 mph - N/A   Clear
10:00 PM 51.8 °F 28.4 °F 41% 30.12 in - North 15.0 mph - N/A   Clear
10:30 PM 53.6 °F 26.6 °F 35% 30.12 in - North 20.7 mph - N/A   Clear
11:00 PM 51.8 °F 26.6 °F 38% 30.12 in - North 16.1 mph - N/A   Clear
11:30 PM 51.8 °F 26.6 °F 38% 30.12 in - North 11.5 mph - N/A   Clear